This is the latest recevied weather packets stored in our database for station/object DH1FR-13. If no packets are shown the sender has not sent any weather packets the latest 10 day(s).
| Time | Temp. | Humidity | Pressure | Rain* | Wind** | Luminosity | Snow |
|---|---|---|---|---|---|---|---|
| 1777474201 | 16.11° C | 35% | 1028.8 hPa | 0 mm | 0 m/s | - | - |
| 1777473600 | 16.11° C | 35% | 1028.5 hPa | 0 mm | 0 m/s | - | - |
| 1777473001 | 16.67° C | 35% | 1028.6 hPa | 0 mm | 0 m/s | - | - |
| 1777472401 | 16.67° C | 36% | 1028.8 hPa | 0 mm | 0 m/s | - | - |
| 1777471801 | 16.11° C | 36% | 1028.8 hPa | 0 mm | 0.45 m/s, 82° | - | - |
| 1777471201 | 16.67° C | 35% | 1028.8 hPa | 0 mm | 0.45 m/s, 85° | - | - |
| 1777470601 | 16.11° C | 35% | 1028.7 hPa | 0 mm | 0 m/s | - | - |
| 1777470001 | 16.67° C | 36% | 1028.8 hPa | 0 mm | 0 m/s | - | - |
| 1777469401 | 16.67° C | 36% | 1028.7 hPa | 0 mm | 0 m/s | - | - |
| 1777468801 | 16.67° C | 36% | 1028.7 hPa | 0 mm | 0 m/s | - | - |
| 1777468201 | 15.56° C | 36% | 1028.9 hPa | 0 mm | 0.45 m/s, 51° | - | - |
| 1777467601 | 15.56° C | 35% | 1028.8 hPa | 0 mm | 0.45 m/s, 47° | - | - |
| 1777467000 | 16.67° C | 34% | 1028.7 hPa | 0 mm | 0.45 m/s, 48° | - | - |
| 1777466401 | 15.56° C | 35% | 1028.7 hPa | 0 mm | 0.45 m/s, 45° | - | - |
| 1777465201 | 15.56° C | 35% | 1028.9 hPa | 0 mm | 0.45 m/s, 60° | - | - |
| 1777464601 | 15.56° C | 38% | 1028.6 hPa | 0 mm | 0.45 m/s, 67° | - | - |
| 1777464001 | 16.11° C | 36% | 1028.8 hPa | 0 mm | 0.45 m/s, 67° | - | - |
| 1777463401 | 15.56° C | 34% | 1028.8 hPa | 0 mm | 0.45 m/s, 64° | - | - |
| 1777462801 | 15.56° C | 34% | 1028.8 hPa | 0 mm | 0.45 m/s, 56° | - | - |
| 1777462201 | 15.56° C | 34% | 1028.8 hPa | 0 mm | 0 m/s | - | - |
| 1777461601 | 15.56° C | 34% | 1029.1 hPa | 0 mm | 0.45 m/s, 59° | - | - |
| 1777461001 | 15° C | 35% | 1028.8 hPa | 0 mm | 0.45 m/s, 75° | - | - |
| 1777460401 | 15° C | 36% | 1029 hPa | 0 mm | 0.45 m/s, 75° | - | - |
| 1777459801 | 14.44° C | 37% | 1029.2 hPa | 0 mm | 0.45 m/s, 77° | - | - |
| 1777459201 | 13.89° C | 35% | 1029.1 hPa | 0 mm | 0.45 m/s, 72° | - | - |
* Rain latest hour (hover to see other rain measurements)
** Current wind speed in m/s (hover to see current wind gust speed)